,,PA_Meas_PMT16A,,PR_Meas_QMR101_102,,RH_Meas_QMH101,,SR_Meas_QMS101,,TA_Meas_QMH101,,GenWind,,GenWind,
time,status,PA,status,PR,status,RH,status,SR,status,TA,status,DirAvg,status,SpdAvg,
2016-08-02, 14:34:04,VALID,917.5,VALID,0,INVALID,113.673,VALID,88.8538,VALID,20.0179,VALID,350,VALID,0,
2016-08-02, 14:35:04,VALID,917.499,VALID,0,INVALID,113.764,VALID,91.8622,VALID,20.0179,VALID,16,VALID,0,
2016-08-02, 14:36:04,VALID,917.496,VALID,0,INVALID,113.917,VALID,93.7961,VALID,19.9968,VALID,12,VALID,0,
2016-08-02, 14:37:04,VALID,917.51,VALID,0,INVALID,113.94,VALID,95.4077,VALID,20.0358,VALID,19,VALID,0,
2016-08-02, 14:38:04,VALID,917.477,VALID,0,INVALID,113.993,VALID,97.2342,VALID,20.0553,VALID,343,VALID,0,
2016-08-02, 14:39:04,VALID,917.488,VALID,0,INVALID,114.145,VALID,99.2756,VALID,20.0163,VALID,11,VALID,0,
2016-08-02, 14:40:04,VALID,917.503,VALID,0,INVALID,114.206,VALID,101.317,VALID,20.0148,VALID,17,VALID,0,
2016-08-02, 14:41:04,VALID,917.455,VALID,0,INVALID,114.267,VALID,103.466,VALID,20.0358,VALID,16,VALID,0,
2016-08-02, 14:42:04,VALID,917.474,VALID,0,INVALID,114.359,VALID,105.937,VALID,20.0358,VALID,13,VALID,0,
2016-08-02, 14:43:04,VALID,917.464,VALID,0,INVALID,114.443,VALID,108.408,VALID,20.0553,VALID,18,VALID,0,
2016-08-02, 14:44:04,VALID,917.496,VALID,0,INVALID,114.496,VALID,111.094,VALID,20.0749,VALID,360,VALID,0,
2016-08-02, 14:45:04,VALID,917.432,VALID,0,INVALID,114.542,VALID,113.888,VALID,20.0944,VALID,2,VALID,0,
2016-08-02, 14:46:04,VALID,917.43,VALID,0,INVALID,114.588,VALID,116.359,VALID,20.1139,VALID,38,VALID,0,
2016-08-02, 14:47:04,VALID,917.456,VALID,0,INVALID,114.649,VALID,119.689,VALID,20.1513,VALID,356,VALID,0,
2016-08-02, 14:48:04,VALID,917.463,VALID,0,INVALID,114.809,VALID,122.698,VALID,20.1724,VALID,1,VALID,0,
2016-08-02, 14:49:04,VALID,917.447,VALID,0,INVALID,114.824,VALID,125.062,VALID,20.2129,VALID,10,VALID,0,
2016-08-02, 14:50:04,VALID,917.431,VALID,0,INVALID,114.854,VALID,127.64,VALID,20.2714,VALID,10,VALID,0,
2016-08-02, 14:51:04,VALID,917.439,VALID,0,INVALID,114.893,VALID,130.434,VALID,20.2909,VALID,337,VALID,0,
2016-08-02, 14:52:04,VALID,917.443,VALID,0,INVALID,115.045,VALID,133.549,VALID,20.2699,VALID,352,VALID,0,
2016-08-02, 14:53:04,VALID,917.463,VALID,0,INVALID,115.098,VALID,136.773,VALID,20.3284,VALID,352,VALID,0,
2016-08-02, 14:54:04,VALID,917.463,VALID,0,INVALID,115.083,VALID,140.533,VALID,20.3869,VALID,352,VALID,0,
2016-08-02, 14:55:04,VALID,917.46,VALID,0,INVALID,115.19,VALID,144.508,VALID,20.4259,VALID,9,VALID,0,
2016-08-02, 14:56:04,VALID,917.478,VALID,0,INVALID,115.396,VALID,148.806,VALID,20.4064,VALID,7,VALID,0,
2016-08-02, 14:57:04,VALID,917.482,VALID,0,INVALID,115.441,VALID,153.533,VALID,20.4454,VALID,12,VALID,0,
2016-08-02, 14:58:04,VALID,917.491,VALID,0,INVALID,115.54,VALID,158.046,VALID,20.465,VALID,9,VALID,0,
2016-08-02, 14:59:04,VALID,917.456,VALID,0,INVALID,115.701,VALID,161.806,VALID,20.4845,VALID,14,VALID,0,
2016-08-02, 15:00:04,VALID,917.45,VALID,0,INVALID,115.914,VALID,163.418,VALID,20.4845,VALID,351,VALID,0,
2016-08-02, 15:01:04,VALID,917.442,VALID,0,INVALID,116.013,VALID,164.492,VALID,20.5445,VALID,31,VALID,0,
2016-08-02, 15:02:04,VALID,917.407,VALID,0,INVALID,116.318,VALID,165.567,VALID,20.504,VALID,24,VALID,0,
2016-08-02, 15:03:04,VALID,917.447,VALID,0,INVALID,116.471,VALID,166.426,VALID,20.504,VALID,15,VALID,0,
2016-08-02, 15:04:04,VALID,917.423,VALID,0,INVALID,116.608,VALID,167.286,VALID,20.543,VALID,23,VALID,0,
2016-08-02, 15:05:04,VALID,917.45,VALID,0,INVALID,116.646,VALID,168.36,VALID,20.582,VALID,16,VALID,0,
2016-08-02, 15:06:04,VALID,917.451,VALID,0,INVALID,116.737,VALID,170.079,VALID,20.5999,VALID,358,VALID,0,
2016-08-02, 15:07:04,VALID,917.45,VALID,0,INVALID,116.791,VALID,171.369,VALID,20.66,VALID,11,VALID,0,
2016-08-02, 15:08:04,VALID,917.449,VALID,0,INVALID,116.73,VALID,172.873,VALID,20.7576,VALID,3,VALID,0,
2016-08-02, 15:09:04,VALID,917.417,VALID,0,INVALID,116.775,VALID,174.27,VALID,20.7771,VALID,331,VALID,0,
2016-08-02, 15:10:04,VALID,917.432,VALID,0,INVALID,116.73,VALID,175.774,VALID,20.834,VALID,36,VALID,0,
2016-08-02, 15:11:04,VALID,917.405,VALID,0,INVALID,116.768,VALID,177.708,VALID,20.9136,VALID,358,VALID,0,
2016-08-02, 15:12:04,VALID,917.405,VALID,0,INVALID,116.836,VALID,179.642,VALID,20.8925,VALID,331,VALID,0,
2016-08-02, 15:13:04,VALID,917.401,VALID,0,INVALID,116.897,VALID,181.038,VALID,20.8145,VALID,319,VALID,0,
2016-08-02, 15:14:04,VALID,917.421,VALID,0,INVALID,116.76,VALID,182.005,VALID,20.8356,VALID,320,VALID,0,
2016-08-02, 15:15:04,VALID,917.422,VALID,0,INVALID,116.707,VALID,182.757,VALID,20.834,VALID,326,VALID,0,
2016-08-02, 15:16:04,VALID,917.424,VALID,0,INVALID,116.623,VALID,183.724,VALID,20.834,VALID,347,VALID,0,
2016-08-02, 15:17:04,VALID,917.41,VALID,0,INVALID,116.364,VALID,184.476,VALID,20.8535,VALID,339,VALID,0,
2016-08-02, 15:18:04,VALID,917.397,VALID,0,INVALID,116.371,VALID,185.229,VALID,20.912,VALID,339,VALID,0,
2016-08-02, 15:19:04,VALID,917.417,VALID,0,INVALID,116.31,VALID,185.981,VALID,20.9511,VALID,353,VALID,0,
2016-08-02, 15:20:04,VALID,917.406,VALID,0,INVALID,116.257,VALID,187.055,VALID,20.9706,VALID,1,VALID,0,
2016-08-02, 15:21:04,VALID,917.415,VALID,0,INVALID,116.425,VALID,188.882,VALID,21.0486,VALID,5,VALID,0,
2016-08-02, 15:22:04,VALID,917.451,VALID,0,INVALID,116.341,VALID,191.03,VALID,21.0681,VALID,346,VALID,0,
2016-08-02, 15:23:04,VALID,917.485,VALID,0,INVALID,116.28,VALID,193.502,VALID,21.1071,VALID,349,VALID,0,
2016-08-02, 15:24:04,VALID,917.471,VALID,0,INVALID,115.876,VALID,195.973,VALID,21.0665,VALID,12,VALID,0,
2016-08-02, 15:25:04,VALID,917.449,VALID,0,INVALID,115.998,VALID,198.121,VALID,21.1071,VALID,287,VALID,0,
2016-08-02, 15:26:04,VALID,917.435,VALID,0,INVALID,115.929,VALID,199.518,VALID,21.1266,VALID,288,VALID,0,
2016-08-02, 15:27:04,VALID,917.42,VALID,0,INVALID,116.143,VALID,200.378,VALID,21.2031,VALID,300,VALID,0,
2016-08-02, 15:28:04,VALID,917.377,VALID,0,INVALID,115.792,VALID,201.237,VALID,21.2031,VALID,25,VALID,0,
2016-08-02, 15:29:04,VALID,917.442,VALID,0,INVALID,115.426,VALID,201.774,VALID,21.2437,VALID,25,VALID,0,
2016-08-02, 15:30:04,VALID,917.435,VALID,0,INVALID,115.075,VALID,202.204,VALID,21.2632,VALID,23,VALID,0,
2016-08-02, 15:31:04,VALID,917.451,VALID,0,INVALID,114.793,VALID,202.741,VALID,21.2827,VALID,30,VALID,0,
2016-08-02, 15:32:04,VALID,917.462,VALID,0,INVALID,114.649,VALID,203.386,VALID,21.3234,VALID,30,VALID,0,
2016-08-02, 15:33:04,VALID,917.44,VALID,0,INVALID,114.763,VALID,204.138,VALID,21.3217,VALID,353,VALID,0,
2016-08-02, 15:34:04,VALID,917.441,VALID,0,INVALID,114.984,VALID,204.998,VALID,21.3786,VALID,23,VALID,0,
2016-08-02, 15:35:04,VALID,917.436,VALID,0,INVALID,114.305,VALID,205.857,VALID,21.3591,VALID,29,VALID,0,
2016-08-02, 15:36:04,VALID,917.438,VALID,0,INVALID,114.778,VALID,206.717,VALID,21.3981,VALID,30,VALID,0,
2016-08-02, 15:37:04,VALID,917.449,VALID,0,INVALID,114.854,VALID,207.576,VALID,21.4973,VALID,12,VALID,0,
2016-08-02, 15:38:04,VALID,917.388,VALID,0,INVALID,113.284,VALID,208.543,VALID,21.4957,VALID,12,VALID,0,
2016-08-02, 15:39:04,VALID,917.411,VALID,0,INVALID,111.736,VALID,209.403,VALID,21.5152,VALID,12,VALID,0,
2016-08-02, 15:40:04,VALID,917.393,VALID,0,INVALID,110.014,VALID,210.047,VALID,21.5737,VALID,12,VALID,0,
2016-08-02, 15:41:04,VALID,917.385,VALID,0,INVALID,110.936,VALID,210.585,VALID,21.6128,VALID,12,VALID,0,
2016-08-02, 15:42:04,VALID,917.39,VALID,0,INVALID,111.866,VALID,210.907,VALID,21.6713,VALID,12,VALID,0,
2016-08-02, 15:43:04,VALID,917.419,VALID,0,INVALID,112.224,VALID,211.014,VALID,21.7493,VALID,14,VALID,0,
2016-08-02, 15:44:04,VALID,917.435,VALID,0,INVALID,110.669,VALID,211.337,VALID,21.7493,VALID,13,VALID,0,
2016-08-02, 15:45:04,VALID,917.454,VALID,0,INVALID,111.775,VALID,211.552,VALID,21.7867,VALID,14,VALID,0,
2016-08-02, 15:46:04,VALID,917.451,VALID,0,INVALID,112.964,VALID,212.089,VALID,21.8664,VALID,13,VALID,0,
2016-08-02, 15:47:04,VALID,917.442,VALID,0,INVALID,113.779,VALID,213.163,VALID,21.9444,VALID,1,VALID,0,
2016-08-02, 15:48:04,VALID,917.489,VALID,0,INVALID,114.069,VALID,214.13,VALID,21.9054,VALID,270,VALID,0,
2016-08-02, 15:49:04,VALID,917.469,VALID,0,INVALID,113.947,VALID,215.312,VALID,21.8485,VALID,270,VALID,0,
2016-08-02, 15:50:04,VALID,917.456,VALID,0,INVALID,114.473,VALID,216.709,VALID,21.8876,VALID,270,VALID,0,
2016-08-02, 15:51:04,VALID,917.44,VALID,0,INVALID,113.932,VALID,218.106,VALID,21.8469,VALID,270,VALID,0,
2016-08-02, 15:52:04,VALID,917.418,VALID,0,INVALID,113.215,VALID,219.502,VALID,21.8079,VALID,271,VALID,0,
2016-08-02, 15:53:04,VALID,917.445,VALID,0,INVALID,112.583,VALID,220.792,VALID,21.6713,VALID,271,VALID,0,
2016-08-02, 15:54:04,VALID,917.462,VALID,0,INVALID,113.071,VALID,222.403,VALID,21.6128,VALID,271,VALID,0,
2016-08-02, 15:55:04,VALID,917.499,VALID,0,INVALID,113.871,VALID,224.23,VALID,21.6339,VALID,271,VALID,0,
2016-08-02, 15:56:04,VALID,917.494,VALID,0,INVALID,113.978,VALID,226.486,VALID,21.6323,VALID,271,VALID,0,
2016-08-02, 15:57:04,VALID,917.499,VALID,0,INVALID,114.237,VALID,229.172,VALID,21.7103,VALID,271,VALID,0,
2016-08-02, 15:58:04,VALID,917.493,VALID,0,INVALID,114.732,VALID,232.18,VALID,21.7298,VALID,270,VALID,0,
2016-08-02, 15:59:04,VALID,917.507,VALID,0,INVALID,114.984,VALID,235.511,VALID,21.7883,VALID,270,VALID,0,
2016-08-02, 16:00:04,VALID,917.536,VALID,0,INVALID,115.197,VALID,238.842,VALID,21.8664,VALID,270,VALID,0,
2016-08-02, 16:01:04,VALID,917.556,VALID,0,INVALID,115.197,VALID,242.172,VALID,21.9266,VALID,270,VALID,0,
2016-08-02, 16:02:04,VALID,917.55,VALID,0,INVALID,113.01,VALID,245.181,VALID,21.8664,VALID,271,VALID,0,
2016-08-02, 16:03:04,VALID,917.535,VALID,0,VALID,104,VALID,248.297,VALID,21.9054,VALID,271,VALID,0,
2016-08-02, 16:04:04,VALID,917.586,VALID,0,VALID,98.3954,VALID,251.305,VALID,21.8664,VALID,274,VALID,0,
2016-08-02, 16:05:04,VALID,917.56,VALID,0,VALID,94.0806,VALID,254.421,VALID,21.8681,VALID,274,VALID,0,
2016-08-02, 16:06:04,VALID,917.564,VALID,0,VALID,97.3586,VALID,257.536,VALID,21.8274,VALID,274,VALID,0,
2016-08-02, 16:07:04,VALID,917.589,VALID,0,VALID,104,VALID,260.76,VALID,21.8274,VALID,273,VALID,0,
2016-08-02, 16:08:04,VALID,917.578,VALID,0,INVALID,110.555,VALID,263.983,VALID,21.8842,VALID,273,VALID,0,
2016-08-02, 16:09:04,VALID,917.567,VALID,0,INVALID,112.118,VALID,267.314,VALID,22.0208,VALID,274,VALID,0,
2016-08-02, 16:10:04,VALID,917.586,VALID,0,INVALID,112.331,VALID,270.752,VALID,22.1591,VALID,274,VALID,0,
2016-08-02, 16:11:04,VALID,917.569,VALID,0,INVALID,112.057,VALID,274.082,VALID,22.1981,VALID,274,VALID,0,
2016-08-02, 16:12:04,VALID,917.563,VALID,0,INVALID,110.936,VALID,277.521,VALID,22.1964,VALID,274,VALID,0,
2016-08-02, 16:13:04,VALID,917.543,VALID,0,INVALID,112.018,VALID,280.529,VALID,22.2354,VALID,306,VALID,0,
2016-08-02, 16:14:04,VALID,917.509,VALID,0,INVALID,111.317,VALID,283.107,VALID,22.2371,VALID,307,VALID,0,
2016-08-02, 16:15:04,VALID,917.546,VALID,0,INVALID,111.363,VALID,285.364,VALID,22.2745,VALID,309,VALID,0,
2016-08-02, 16:16:04,VALID,917.533,VALID,0,VALID,104,VALID,287.942,VALID,22.1964,VALID,302,VALID,0,
2016-08-02, 16:17:04,VALID,917.533,VALID,0,INVALID,110.852,VALID,290.091,VALID,22.1769,VALID,329,VALID,0,
2016-08-02, 16:18:04,VALID,917.514,VALID,0,INVALID,111.775,VALID,293.207,VALID,22.2762,VALID,5,VALID,0,
2016-08-02, 16:19:04,VALID,917.526,VALID,0,INVALID,109.785,VALID,296.967,VALID,22.3135,VALID,311,VALID,0,
2016-08-02, 16:20:04,VALID,917.531,VALID,0,INVALID,110.761,VALID,300.191,VALID,22.4111,VALID,22,VALID,0,
2016-08-02, 16:21:04,VALID,917.514,VALID,0,INVALID,110.128,VALID,304.166,VALID,22.5281,VALID,14,VALID,0,
2016-08-02, 16:22:04,VALID,917.533,VALID,0,INVALID,110.204,VALID,307.389,VALID,22.5867,VALID,321,VALID,0,
2016-08-02, 16:23:04,VALID,917.532,VALID,0,INVALID,111.363,VALID,311.472,VALID,22.5867,VALID,346,VALID,0,
2016-08-02, 16:24:04,VALID,917.549,VALID,0,VALID,104,VALID,313.836,VALID,22.6062,VALID,340,VALID,0,
2016-08-02, 16:25:04,VALID,917.553,VALID,0,VALID,104,VALID,317.596,VALID,22.6452,VALID,327,VALID,0,
2016-08-02, 16:26:04,VALID,917.577,VALID,0,VALID,104,VALID,321.679,VALID,22.6843,VALID,324,VALID,0,
2016-08-02, 16:27:04,VALID,917.581,VALID,0,VALID,104,VALID,325.654,VALID,22.7445,VALID,325,VALID,0,
2016-08-02, 16:28:04,VALID,917.594,VALID,0,VALID,104,VALID,330.596,VALID,22.7428,VALID,1,VALID,0,
2016-08-02, 16:29:04,VALID,917.604,VALID,0,VALID,104,VALID,336.506,VALID,22.7818,VALID,340,VALID,0,
2016-08-02, 16:30:04,VALID,917.598,VALID,0,VALID,102.36,VALID,342.63,VALID,22.7836,VALID,15,VALID,0,
2016-08-02, 16:31:04,VALID,917.544,VALID,0,VALID,104,VALID,348.969,VALID,22.7428,VALID,350,VALID,0,
2016-08-02, 16:32:04,VALID,917.565,VALID,0,INVALID,110.7,VALID,355.415,VALID,22.8014,VALID,19,VALID,0,
2016-08-02, 16:33:04,VALID,917.597,VALID,0,INVALID,111.081,VALID,363.151,VALID,22.938,VALID,17,VALID,0,
2016-08-02, 16:34:04,VALID,917.575,VALID,0,INVALID,109.8,VALID,373.251,VALID,23.1154,VALID,2,VALID,0,
2016-08-02, 16:35:04,VALID,917.58,VALID,0,INVALID,109.449,VALID,377.333,VALID,23.3301,VALID,2,VALID,0,
2016-08-02, 16:36:04,VALID,917.569,VALID,0,VALID,102.062,VALID,377.441,VALID,23.5253,VALID,3,VALID,0,
2016-08-02, 16:37:04,VALID,917.56,VALID,0,VALID,89.2854,VALID,380.664,VALID,23.6406,VALID,324,VALID,0,
2016-08-02, 16:38:04,VALID,917.575,VALID,0,VALID,86.0303,VALID,383.887,VALID,23.7773,VALID,360,VALID,0,
2016-08-02, 16:39:04,VALID,917.548,VALID,0,VALID,82.0127,VALID,386.896,VALID,23.8163,VALID,319,VALID,0,
2016-08-02, 16:40:04,VALID,917.563,VALID,0,VALID,84.7876,VALID,389.474,VALID,23.7773,VALID,19,VALID,0,
2016-08-02, 16:41:04,VALID,917.58,VALID,0,VALID,84.7419,VALID,393.449,VALID,23.7187,VALID,6,VALID,0,
2016-08-02, 16:42:04,VALID,917.544,VALID,0,VALID,91.1227,VALID,398.929,VALID,23.7187,VALID,13,VALID,0,
2016-08-02, 16:43:04,VALID,917.535,VALID,0,VALID,93.2115,VALID,408.921,VALID,23.7968,VALID,349,VALID,0,
2016-08-02, 16:44:04,VALID,917.532,VALID,0,VALID,85.5728,VALID,428.798,VALID,23.8554,VALID,2,VALID,0,
2016-08-02, 16:45:04,VALID,917.55,VALID,0,VALID,94.1492,VALID,469.303,VALID,23.9121,VALID,5,VALID,0,
2016-08-02, 16:46:04,VALID,917.542,VALID,0,VALID,82.3176,VALID,512.387,VALID,24.0115,VALID,348,VALID,0,
2016-08-02, 16:47:04,VALID,917.56,VALID,0,VALID,83.1257,VALID,500.783,VALID,23.9902,VALID,343,VALID,0,
2016-08-02, 16:48:04,VALID,917.553,VALID,0,VALID,84.2311,VALID,519.263,VALID,24.1055,VALID,46,VALID,0,
2016-08-02, 16:49:04,VALID,917.556,VALID,0,VALID,81.8755,VALID,545.049,VALID,24.2458,VALID,16,VALID,0,
2016-08-02, 16:50:04,VALID,917.566,VALID,0,VALID,82.1042,VALID,466.939,VALID,24.4216,VALID,31,VALID,0,
2016-08-02, 16:51:04,VALID,917.584,VALID,0,VALID,79.5808,VALID,441.583,VALID,24.4978,VALID,241,VALID,0,
2016-08-02, 16:52:04,VALID,917.58,VALID,0,VALID,78.9862,VALID,425.682,VALID,24.5582,VALID,297,VALID,0,
2016-08-02, 16:53:04,VALID,917.554,VALID,0,VALID,77.149,VALID,423.211,VALID,24.5173,VALID,318,VALID,0,
2016-08-02, 16:54:04,VALID,917.532,VALID,0,VALID,77.9571,VALID,428.905,VALID,24.4002,VALID,28,VALID,0,
2016-08-02, 16:55:04,VALID,917.569,VALID,0,VALID,79.3674,VALID,431.484,VALID,24.283,VALID,20,VALID,0,
2016-08-02, 16:57:04,VALID,917.548,VALID,0,VALID,78.5593,VALID,409.995,VALID,24.3007,VALID,26,VALID,0.0886719,
2016-08-02, 16:58:04,VALID,917.564,VALID,0,VALID,77.6902,VALID,431.806,VALID,24.244,VALID,10,VALID,0,
2016-08-02, 16:59:04,VALID,917.551,VALID,0,VALID,81.5553,VALID,496.593,VALID,24.2049,VALID,14,VALID,0,
2016-08-02, 17:00:04,VALID,917.57,VALID,0,VALID,82.1652,VALID,524.313,VALID,24.2245,VALID,13,VALID,0.0621094,
2016-08-02, 17:01:04,VALID,917.584,VALID,0,VALID,83.2401,VALID,676.879,VALID,24.2635,VALID,337,VALID,0,
2016-08-02, 17:02:04,VALID,917.581,VALID,0,VALID,77.0041,VALID,904.01,VALID,24.2031,VALID,310,VALID,0,
2016-08-02, 17:03:04,VALID,917.575,VALID,0,VALID,77.0422,VALID,765.303,VALID,24.283,VALID,333,VALID,0,
2016-08-02, 17:04:04,VALID,917.598,VALID,0,VALID,75.9673,VALID,625.845,VALID,24.3593,VALID,338,VALID,1.39063,
2016-08-02, 17:05:04,VALID,917.532,VALID,0,VALID,78.4221,VALID,524.957,VALID,24.3788,VALID,11,VALID,1.1668,
2016-08-02, 17:06:04,VALID,917.509,VALID,0,VALID,80.4499,VALID,603.604,VALID,24.3983,VALID,17,VALID,0.0195313,
2016-08-02, 17:07:04,VALID,917.554,VALID,0,VALID,76.905,VALID,665.061,VALID,24.574,VALID,360,VALID,0.00429688,
2016-08-02, 17:08:04,VALID,917.542,VALID,0,VALID,74.6332,VALID,603.497,VALID,24.574,VALID,10,VALID,0,
2016-08-02, 17:09:04,VALID,917.517,VALID,0,VALID,75.3346,VALID,681.177,VALID,24.5722,VALID,15,VALID,0,
2016-08-02, 17:10:04,VALID,917.523,VALID,0,VALID,78.0562,VALID,729.311,VALID,24.6912,VALID,20,VALID,1.06758,
2016-08-02, 17:11:04,VALID,917.494,VALID,0,VALID,73.3982,VALID,711.798,VALID,24.7693,VALID,356,VALID,1.3625,
2016-08-02, 17:12:04,VALID,917.476,VALID,0,VALID,74.5799,VALID,736.294,VALID,24.7283,VALID,335,VALID,0,
2016-08-02, 17:13:04,VALID,917.484,VALID,0,VALID,75.3727,VALID,724.691,VALID,24.8845,VALID,14,VALID,0,
2016-08-02, 17:14:04,VALID,917.455,VALID,0,VALID,75.1135,VALID,714.913,VALID,25.0993,VALID,324,VALID,0,
2016-08-02, 17:15:04,VALID,917.483,VALID,0,VALID,73.5507,VALID,701.054,VALID,25.2379,VALID,314,VALID,0,
2016-08-02, 17:16:04,VALID,917.455,VALID,0,VALID,72.7426,VALID,680.425,VALID,25.1207,VALID,334,VALID,0,
2016-08-02, 17:17:04,VALID,917.443,VALID,0,VALID,73.2839,VALID,707.822,VALID,25.0817,VALID,10,VALID,0,
2016-08-02, 17:18:04,VALID,917.41,VALID,0,VALID,75.4871,VALID,722.112,VALID,25.2769,VALID,349,VALID,0,
2016-08-02, 17:19:04,VALID,917.416,VALID,0,VALID,71.9955,VALID,711.046,VALID,25.4312,VALID,15,VALID,0,
2016-08-02, 17:20:04,VALID,917.406,VALID,0,VALID,73.0552,VALID,703.202,VALID,25.5894,VALID,7,VALID,0,
2016-08-02, 17:21:04,VALID,917.404,VALID,0,VALID,72.9027,VALID,689.987,VALID,25.648,VALID,352,VALID,0,
2016-08-02, 17:22:04,VALID,917.421,VALID,0,VALID,72.3462,VALID,689.665,VALID,25.5874,VALID,284,VALID,0,
2016-08-02, 17:23:04,VALID,917.41,VALID,0,VALID,74.5036,VALID,693.103,VALID,25.3922,VALID,272,VALID,0,
2016-08-02, 17:24:04,VALID,917.455,VALID,0,VALID,76.0741,VALID,696.326,VALID,25.4703,VALID,356,VALID,0,
2016-08-02, 17:25:04,VALID,917.432,VALID,0,VALID,73.4211,VALID,697.615,VALID,25.6851,VALID,16,VALID,0,
2016-08-02, 17:26:04,VALID,917.455,VALID,0,VALID,73.0399,VALID,706.103,VALID,25.7827,VALID,301,VALID,0,
2016-08-02, 17:27:04,VALID,917.449,VALID,0,VALID,73.4287,VALID,711.475,VALID,25.9975,VALID,311,VALID,0,
2016-08-02, 17:28:04,VALID,917.463,VALID,0,VALID,71.6601,VALID,718.996,VALID,26.1713,VALID,1,VALID,0.777734,
2016-08-02, 17:29:04,VALID,917.478,VALID,0,VALID,68.6336,VALID,609.836,VALID,26.1342,VALID,285,VALID,0.790234,
2016-08-02, 17:30:04,VALID,917.491,VALID,0,VALID,72.3843,VALID,443.41,VALID,25.8608,VALID,353,VALID,0,
2016-08-02, 17:31:04,VALID,917.472,VALID,0,VALID,72.3157,VALID,554.611,VALID,25.8999,VALID,351,VALID,0,
2016-08-02, 17:32:04,VALID,917.48,VALID,0,VALID,73.4059,VALID,617.357,VALID,25.8393,VALID,337,VALID,0,
2016-08-02, 17:33:04,VALID,917.462,VALID,0,VALID,73.3982,VALID,737.369,VALID,25.5464,VALID,358,VALID,0.925781,
2016-08-02, 17:34:04,VALID,917.395,VALID,0,VALID,74.9458,VALID,781.312,VALID,25.4293,VALID,339,VALID,0,
2016-08-02, 17:35:04,VALID,917.391,VALID,0,VALID,74.374,VALID,795.387,VALID,25.4683,VALID,356,VALID,0.233594,
2016-08-02, 17:36:04,VALID,917.318,VALID,0,VALID,73.3754,VALID,149.236,VALID,25.4683,VALID,24,VALID,1.43359,
2016-08-02, 17:37:04,VALID,917.301,VALID,0,VALID,75.3422,VALID,799.899,VALID,25.4098,VALID,317,VALID,0.653516,
2016-08-02, 17:38:04,VALID,917.261,VALID,0,VALID,75.022,VALID,764.444,VALID,25.3707,VALID,340,VALID,0,
2016-08-02, 17:39:04,VALID,917.236,VALID,0,VALID,72.796,VALID,772.072,VALID,25.3707,VALID,298,VALID,0.437109,
2016-08-02, 17:40:04,VALID,917.218,VALID,0,VALID,76.1656,VALID,282.463,VALID,25.3902,VALID,360,VALID,0,
2016-08-02, 17:41:04,VALID,917.178,VALID,0,VALID,74.4198,VALID,531.511,VALID,25.4098,VALID,330,VALID,0.00585938,
2016-08-02, 17:42:04,VALID,917.206,VALID,0,VALID,75.0983,VALID,774.436,VALID,25.3707,VALID,24,VALID,0,
2016-08-02, 17:43:04,VALID,917.128,VALID,0,VALID,74.7171,VALID,563.744,VALID,25.3707,VALID,26,VALID,0.371094,
2016-08-02, 17:44:04,VALID,917.142,VALID,0,VALID,74.8772,VALID,759.072,VALID,25.3902,VALID,337,VALID,0.139844,
2016-08-02, 17:45:04,VALID,917.073,VALID,0,VALID,74.2673,VALID,723.938,VALID,25.4488,VALID,19,VALID,0.282031,
2016-08-02, 17:46:04,VALID,917.081,VALID,0,VALID,73.8328,VALID,613.919,VALID,25.4117,VALID,301,VALID,0,
2016-08-02, 17:47:04,VALID,917.066,VALID,0,VALID,72.8875,VALID,768.741,VALID,25.2907,VALID,346,VALID,0.278906,
2016-08-02, 17:48:04,VALID,917.033,VALID,0,VALID,76.0207,VALID,769.386,VALID,25.2536,VALID,11,VALID,0.284766,
2016-08-02, 17:49:04,VALID,917.047,VALID,0,VALID,77.4996,VALID,854.372,VALID,25.3707,VALID,16,VALID,0,
2016-08-02, 17:50:04,VALID,917.05,VALID,0,VALID,77.3319,VALID,516.255,VALID,25.6226,VALID,21,VALID,0,
2016-08-02, 17:51:04,VALID,917.044,VALID,0,VALID,72.3767,VALID,347.357,VALID,25.6831,VALID,344,VALID,0,
2016-08-02, 17:52:04,VALID,916.991,VALID,0,VALID,73.7108,VALID,806.346,VALID,25.7007,VALID,33,VALID,0.435547,
2016-08-02, 17:53:04,VALID,916.988,VALID,0,VALID,74.618,VALID,790.552,VALID,25.8393,VALID,311,VALID,0,
2016-08-02, 17:54:04,VALID,916.975,VALID,0,VALID,71.7516,VALID,820.313,VALID,25.976,VALID,309,VALID,0,
2016-08-02, 17:55:04,VALID,916.942,VALID,0,VALID,71.0045,VALID,664.953,VALID,25.976,VALID,260,VALID,0.00429688,
2016-08-02, 17:56:04,VALID,916.97,VALID,0,VALID,70.6233,VALID,453.831,VALID,25.976,VALID,357,VALID,0.669141,
2016-08-02, 17:57:04,VALID,916.957,VALID,0,VALID,73.0171,VALID,290.413,VALID,25.8022,VALID,351,VALID,0,
2016-08-02, 17:58:04,VALID,916.973,VALID,0,VALID,72.9866,VALID,220.469,VALID,25.6636,VALID,24,VALID,0,
2016-08-02, 17:59:04,VALID,916.988,VALID,0,VALID,74.0767,VALID,251.52,VALID,25.6851,VALID,335,VALID,0,
2016-08-02, 18:00:04,VALID,916.972,VALID,0,VALID,74.0081,VALID,242.602,VALID,25.5679,VALID,10,VALID,0,
2016-08-02, 18:01:04,VALID,917.011,VALID,0,VALID,74.7628,VALID,282.248,VALID,25.3922,VALID,9,VALID,0.0769531,
2016-08-02, 18:02:04,VALID,916.991,VALID,0,VALID,74.3893,VALID,253.131,VALID,25.3121,VALID,281,VALID,0,
2016-08-02, 18:03:04,VALID,916.987,VALID,0,VALID,76.6687,VALID,839.438,VALID,25.2926,VALID,8,VALID,0,
2016-08-02, 18:04:04,VALID,917.024,VALID,0,VALID,74.9839,VALID,847.926,VALID,25.3531,VALID,339,VALID,0.00117188,
2016-08-02, 18:05:04,VALID,917.02,VALID,0,VALID,77.6369,VALID,878.761,VALID,25.4312,VALID,13,VALID,0,
2016-08-02, 18:06:04,VALID,916.974,VALID,0,VALID,74.3893,VALID,337.365,VALID,25.5289,VALID,27,VALID,0.90625,
2016-08-02, 18:07:04,VALID,917.013,VALID,0,VALID,73.2,VALID,825.363,VALID,25.5874,VALID,351,VALID,0.632813,
2016-08-02, 18:08:04,VALID,917.025,VALID,0,VALID,76.1427,VALID,784.643,VALID,25.646,VALID,8,VALID,0.0851562,
2016-08-02, 18:09:04,VALID,916.999,VALID,0,VALID,71.8964,VALID,631.539,VALID,25.8218,VALID,294,VALID,0.24375,
2016-08-02, 18:10:04,VALID,916.979,VALID,0,VALID,74.5723,VALID,923.994,VALID,25.8608,VALID,16,VALID,0.0753906,
2016-08-02, 18:11:04,VALID,916.962,VALID,0,VALID,73.6498,VALID,919.804,VALID,25.8218,VALID,39,VALID,2.12695,
2016-08-02, 18:12:04,VALID,916.957,VALID,0,VALID,75.7158,VALID,906.481,VALID,25.8784,VALID,40,VALID,0.615234,
2016-08-02, 18:13:04,VALID,916.929,VALID,0,VALID,68.6107,VALID,974.921,VALID,26.1127,VALID,317,VALID,0.614844,
2016-08-02, 18:14:04,VALID,916.899,VALID,0,VALID,70.4404,VALID,213.915,VALID,26.1127,VALID,14,VALID,0.514063,
2016-08-02, 18:15:04,VALID,916.896,VALID,0,VALID,72.3767,VALID,222.618,VALID,26.0541,VALID,310,VALID,0,
2016-08-02, 18:16:04,VALID,916.847,VALID,0,VALID,68.6107,VALID,556.76,VALID,25.937,VALID,14,VALID,1.11953,
2016-08-02, 18:17:04,VALID,916.829,VALID,0,VALID,73.3754,VALID,488.32,VALID,25.6616,VALID,342,VALID,0.00585938,
2016-08-02, 18:18:04,VALID,916.78,VALID,0,VALID,75.5023,VALID,201.667,VALID,25.605,VALID,333,VALID,0.610937,